User: anonymous   Login
Location: Unspecified
(0.0000°N, 0.0000°E)
Time: 12:49:20
(UTC+00:00)
Language:

YAOGAN 2 - Orbit

View from above orbital plane
View from above orbital plane
View from above satellite
View from above satellite

Ground track
Ground track

The orbit data is extracted from the following two-line orbital elements,

1 31490U 07019A   18200.90339349  .00000044  00000-0  13822-4 0  9993
2 31490  98.0745 316.8604 0020630 187.5297 172.5606 14.76869696600713
Epoch (UTC): 19 July 2018 21:40:53
Eccentricity: 0.0020630
inclination: 98.0745°
perigee height: 625 km
apogee height: 654 km
right ascension of ascending node: 316.8604°
argument of perigee: 187.5297°
revolutions per day: 14.76869696
mean anomaly at epoch: 172.5606°
orbit number at epoch: 60071

The dashed part of the orbit path shows where the satellite is in the earth's shadow,  

DLR